�������l�o���
Date,Time,MP-1(��Sv/h),MP-2(��Sv/h),MP-3(��Sv/h),MP-4(��Sv/h),MP-5(��Sv/h),MP-6(��Sv/h),MP-7(��Sv/h),MP-8(��Sv/h),����,����(m/s),���J
2024/01/26,00:00,0.506,0.763,0.480,0.961,0.675,0.311,0.555,0.520,�k,4.3,��
2024/01/26,00:10,0.506,0.760,0.480,0.960,0.674,0.310,0.555,0.520,�k�k��,4.0,��
2024/01/26,00:20,0.505,0.761,0.478,0.959,0.677,0.311,0.556,0.520,�k�k��,4.9,��
2024/01/26,00:30,0.505,0.762,0.480,0.959,0.675,0.311,0.553,0.520,�k�k��,2.8,��
2024/01/26,00:40,0.504,0.763,0.478,0.960,0.675,0.310,0.555,0.520,�k,3.8,��
2024/01/26,00:50,0.506,0.760,0.479,0.958,0.674,0.311,0.556,0.521,�k�k��,4.0,��
2024/01/26,01:00,0.505,0.760,0.480,0.959,0.676,0.309,0.554,0.521,�k,4.1,��
2024/01/26,01:10,0.505,0.760,0.479,0.957,0.677,0.311,0.554,0.519,�k�k��,4.4,��
2024/01/26,01:20,0.503,0.763,0.479,0.960,0.676,0.311,0.554,0.520,�k�k��,4.2,��
2024/01/26,01:30,0.506,0.762,0.478,0.961,0.676,0.311,0.554,0.518,�k��,3.8,��
2024/01/26,01:40,0.505,0.763,0.481,0.956,0.674,0.310,0.554,0.520,�k��,3.4,��
2024/01/26,01:50,0.504,0.760,0.479,0.959,0.674,0.310,0.556,0.520,�k�k��,2.5,��
2024/01/26,02:00,0.506,0.761,0.479,0.960,0.674,0.310,0.554,0.520,�k,3.2,��
2024/01/26,02:10,0.506,0.763,0.479,0.959,0.674,0.310,0.554,0.518,�k,3.7,��
2024/01/26,02:20,0.506,0.760,0.479,0.959,0.674,0.313,0.554,0.519,�k�k��,2.0,��
2024/01/26,02:30,0.505,0.759,0.479,0.959,0.675,0.311,0.554,0.520,�k,3.0,��
2024/01/26,02:40,0.506,0.761,0.479,0.960,0.674,0.310,0.555,0.519,�k�k��,2.8,��
2024/01/26,02:50,0.506,0.761,0.481,0.960,0.675,0.310,0.553,0.521,�k,3.1,��
2024/01/26,03:00,0.504,0.760,0.479,0.960,0.674,0.310,0.555,0.519,�k,4.2,��
2024/01/26,03:10,0.506,0.760,0.479,0.957,0.676,0.309,0.554,0.518,�k,5.1,��
2024/01/26,03:20,0.505,0.759,0.479,0.959,0.673,0.309,0.553,0.519,�k,5.9,��
2024/01/26,03:30,0.505,0.762,0.478,0.960,0.672,0.310,0.554,0.521,�k�k��,5.1,��
2024/01/26,03:40,0.506,0.761,0.479,0.960,0.674,0.309,0.553,0.520,�k�k��,4.9,��
2024/01/26,03:50,0.505,0.761,0.480,0.959,0.673,0.311,0.554,0.519,�k�k��,4.3,��
2024/01/26,04:00,0.504,0.761,0.478,0.960,0.674,0.309,0.552,0.520,�k�k��,4.1,��
2024/01/26,04:10,0.504,0.760,0.478,0.959,0.672,0.310,0.553,0.520,�k��,2.6,��
2024/01/26,04:20,0.505,0.760,0.480,0.958,0.674,0.310,0.554,0.519,�k��,2.0,��
2024/01/26,04:30,0.504,0.759,0.480,0.959,0.673,0.311,0.553,0.520,�k��,2.8,��
2024/01/26,04:40,0.505,0.760,0.479,0.959,0.674,0.311,0.552,0.520,���k��,1.2,��
2024/01/26,04:50,0.504,0.760,0.478,0.958,0.673,0.309,0.553,0.521,���k��,1.2,��
2024/01/26,05:00,0.505,0.759,0.478,0.956,0.672,0.310,0.553,0.520,��,1.1,��
2024/01/26,05:10,0.507,0.761,0.478,0.959,0.672,0.310,0.552,0.519,�k��,1.8,��
2024/01/26,05:20,0.505,0.760,0.478,0.959,0.673,0.310,0.553,0.521,�k�k��,1.7,��
2024/01/26,05:30,0.505,0.759,0.479,0.958,0.672,0.309,0.553,0.518,�k,2.6,��
2024/01/26,05:40,0.505,0.761,0.478,0.958,0.673,0.309,0.552,0.519,�k,2.5,��
2024/01/26,05:50,0.506,0.760,0.478,0.960,0.672,0.309,0.553,0.520,�k�k��,4.2,��
2024/01/26,06:00,0.505,0.762,0.478,0.957,0.673,0.310,0.553,0.520,�k��,5.1,��
2024/01/26,06:10,0.503,0.758,0.477,0.958,0.673,0.310,0.553,0.520,�k�k��,3.6,��
2024/01/26,06:20,0.506,0.759,0.479,0.958,0.672,0.309,0.553,0.519,�k��,2.2,��
2024/01/26,06:30,0.504,0.760,0.478,0.957,0.673,0.311,0.554,0.520,�k��,1.9,��
2024/01/26,06:40,0.504,0.759,0.479,0.960,0.673,0.309,0.553,0.520,��,2.0,��
2024/01/26,06:50,0.503,0.761,0.478,0.957,0.673,0.310,0.552,0.520,�쐼,2.0,��
2024/01/26,07:00,0.505,0.759,0.478,0.958,0.671,0.309,0.552,0.519,��,2.0,��
2024/01/26,07:10,0.506,0.758,0.477,0.955,0.672,0.310,0.552,0.520,��,1.8,��
2024/01/26,07:20,0.505,0.760,0.478,0.959,0.672,0.310,0.554,0.518,��,1.7,��
2024/01/26,07:30,0.503,0.760,0.478,0.960,0.673,0.309,0.552,0.520,���k��,2.9,��
2024/01/26,07:40,0.504,0.760,0.478,0.956,0.672,0.310,0.554,0.519,�k��,4.1,��
2024/01/26,07:50,0.504,0.761,0.479,0.959,0.673,0.311,0.552,0.518,�k��,4.4,��
2024/01/26,08:00,0.505,0.759,0.478,0.957,0.672,0.310,0.554,0.520,�k��,3.4,��
2024/01/26,08:10,0.504,0.762,0.478,0.961,0.671,0.308,0.553,0.519,�k�k��,3.3,��
2024/01/26,08:20,0.505,0.761,0.477,0.957,0.672,0.309,0.553,0.520,�k�k��,1.9,��
2024/01/26,08:30,0.505,0.760,0.478,0.958,0.672,0.309,0.553,0.520,�k,1.7,��
2024/01/26,08:40,0.504,0.761,0.479,0.959,0.672,0.310,0.553,0.519,�k�k��,1.4,��
2024/01/26,08:50,0.506,0.760,0.478,0.958,0.674,0.310,0.554,0.520,�k�k��,1.2,��
2024/01/26,09:00,0.506,0.761,0.479,0.959,0.672,0.310,0.555,0.520,�k,0.6,��
2024/01/26,09:10,0.505,0.762,0.478,0.961,0.673,0.309,0.556,0.520,�k,0.8,��
2024/01/26,09:20,0.506,0.761,0.478,0.958,0.673,0.310,0.556,0.520,�k,2.3,��
2024/01/26,09:30,0.505,0.762,0.479,0.959,0.672,0.310,0.556,0.520,�k,2.8,��
2024/01/26,09:40,0.505,0.762,0.479,0.959,0.673,0.310,0.555,0.520,�k,4.4,��
2024/01/26,09:50,0.504,0.761,0.478,0.958,0.675,0.311,0.554,0.520,�k�k��,3.5,��
2024/01/26,10:00,0.505,0.760,0.479,0.959,0.672,0.311,0.554,0.519,�k��,1.9,��
2024/01/26,10:10,0.505,0.760,0.480,0.959,0.676,0.311,0.553,0.520,�k�k��,1.9,��
2024/01/26,10:20,0.507,0.760,0.479,0.960,0.677,0.311,0.552,0.520,��쐼,2.3,��
2024/01/26,10:30,0.505,0.761,0.479,0.962,0.675,0.310,0.552,0.519,��쓌,2.0,��
2024/01/26,10:40,0.506,0.762,0.479,0.960,0.677,0.310,0.551,0.520,��쓌,1.8,��
2024/01/26,10:50,0.506,0.761,0.481,0.960,0.677,0.311,0.552,0.520,���쓌,1.7,��
2024/01/26,11:00,0.505,0.761,0.480,0.952,0.678,0.311,0.553,0.521,�k�k��,1.7,��
2024/01/26,11:10,0.505,0.763,0.480,0.961,0.678,0.311,0.553,0.520,�k��,2.0,��
2024/01/26,11:20,0.506,0.762,0.481,0.959,0.679,0.311,0.552,0.520,�k�k��,3.5,��
2024/01/26,11:30,0.503,0.761,0.480,0.961,0.678,0.311,0.552,0.521,���k��,6.0,��
2024/01/26,11:40,0.505,0.764,0.481,0.961,0.678,0.310,0.553,0.521,�k��,5.4,��
2024/01/26,11:50,0.505,0.762,0.481,0.961,0.678,0.312,0.553,0.520,�k��,4.9,��
2024/01/26,12:00,0.508,0.762,0.480,0.961,0.679,0.311,0.552,0.520,���k��,5.7,��
2024/01/26,12:10,0.506,0.763,0.482,0.962,0.679,0.311,0.553,0.520,���k��,5.5,��
2024/01/26,12:20,0.507,0.763,0.480,0.960,0.679,0.312,0.552,0.520,�k��,5.4,��
2024/01/26,12:30,0.506,0.762,0.481,0.963,0.679,0.311,0.554,0.520,�k��,3.9,��
2024/01/26,12:40,0.504,0.765,0.481,0.960,0.678,0.311,0.554,0.520,���k��,5.1,��
2024/01/26,12:50,0.507,0.763,0.482,0.961,0.679,0.311,0.553,0.521,���k��,8.3,��
2024/01/26,13:00,0.508,0.764,0.480,0.961,0.680,0.310,0.553,0.522,�k��,7.6,��
2024/01/26,13:10,0.509,0.765,0.480,0.961,0.680,0.310,0.553,0.521,���k��,6.6,��
2024/01/26,13:20,0.507,0.765,0.480,0.963,0.681,0.311,0.554,0.522,���k��,7.5,��
2024/01/26,13:30,0.507,0.765,0.482,0.961,0.681,0.311,0.555,0.521,�k��,6.3,��
2024/01/26,13:40,0.506,0.765,0.481,0.962,0.682,0.312,0.554,0.522,�k��,7.9,��
2024/01/26,13:50,0.509,0.765,0.480,0.961,0.678,0.312,0.553,0.520,�k�k��,6.6,��
2024/01/26,14:00,0.508,0.764,0.482,0.961,0.678,0.312,0.555,0.519,�k�k��,5.6,��
2024/01/26,14:10,0.508,0.767,0.481,0.963,0.678,0.311,0.554,0.521,�k,6.8,��
2024/01/26,14:20,0.508,0.764,0.481,0.963,0.678,0.312,0.556,0.520,�k�k��,6.7,��
2024/01/26,14:30,0.507,0.765,0.482,0.962,0.680,0.311,0.554,0.520,�k�k��,5.8,��
2024/01/26,14:40,0.507,0.763,0.481,0.964,0.679,0.310,0.557,0.520,�k�k��,4.8,��
2024/01/26,14:50,0.509,0.763,0.482,0.962,0.681,0.312,0.555,0.519,�k��,5.2,��
2024/01/26,15:00,0.508,0.765,0.481,0.963,0.680,0.310,0.555,0.519,�k�k��,3.1,��
2024/01/26,15:10,0.506,0.766,0.481,0.962,0.680,0.312,0.555,0.522,�k�k��,5.0,��
2024/01/26,15:20,0.506,0.765,0.481,0.962,0.681,0.310,0.556,0.522,�k�k��,4.7,��
2024/01/26,15:30,0.507,0.766,0.483,0.963,0.682,0.312,0.556,0.522,�k�k��,4.5,��
2024/01/26,15:40,0.507,0.767,0.483,0.962,0.681,0.313,0.555,0.521,�k�k��,3.3,��
2024/01/26,15:50,0.507,0.764,0.483,0.963,0.680,0.313,0.556,0.522,�k�k��,4.7,��
2024/01/26,16:00,0.508,0.765,0.483,0.963,0.679,0.311,0.556,0.521,�k��,4.1,��
2024/01/26,16:10,0.508,0.766,0.482,0.965,0.680,0.311,0.556,0.522,�k�k��,2.0,��
2024/01/26,16:20,0.506,0.765,0.481,0.963,0.679,0.309,0.557,0.522,�k,2.2,��
2024/01/26,16:30,0.505,0.767,0.482,0.961,0.680,0.312,0.556,0.521,�k,3.2,��
2024/01/26,16:40,0.507,0.764,0.481,0.963,0.681,0.311,0.556,0.521,�k�k��,4.0,��
2024/01/26,16:50,0.507,0.764,0.482,0.961,0.682,0.311,0.556,0.520,�k�k��,4.3,��
2024/01/26,17:00,0.507,0.763,0.480,0.963,0.682,0.312,0.557,0.521,�k,2.9,��
2024/01/26,17:10,0.507,0.766,0.480,0.964,0.680,0.311,0.556,0.521,�k��,1.5,��
2024/01/26,17:20,0.506,0.762,0.480,0.961,0.680,0.311,0.555,0.520,���k��,0.6,��
2024/01/26,17:30,0.507,0.765,0.481,0.962,0.679,0.312,0.554,0.522,�k�k��,1.2,��
2024/01/26,17:40,0.505,0.766,0.480,0.961,0.679,0.311,0.554,0.522,�k�k��,2.3,��
2024/01/26,17:50,0.506,0.763,0.479,0.963,0.679,0.310,0.554,0.521,�k,2.5,��
2024/01/26,18:00,0.507,0.764,0.482,0.963,0.682,0.311,0.555,0.520,�k�k��,3.7,��
2024/01/26,18:10,0.504,0.764,0.481,0.964,0.679,0.311,0.555,0.521,�k�k��,3.5,��
2024/01/26,18:20,0.506,0.765,0.481,0.960,0.679,0.312,0.555,0.521,�k�k��,3.8,��
2024/01/26,18:30,0.506,0.765,0.481,0.960,0.681,0.310,0.555,0.520,�k�k��,3.4,��
2024/01/26,18:40,0.506,0.764,0.480,0.960,0.680,0.312,0.556,0.520,�k��,4.1,��
2024/01/26,18:50,0.506,0.765,0.479,0.962,0.681,0.311,0.554,0.519,�k��,3.9,��
2024/01/26,19:00,0.504,0.764,0.480,0.963,0.681,0.310,0.554,0.519,�k��,4.4,��
2024/01/26,19:10,0.506,0.765,0.481,0.961,0.681,0.310,0.554,0.519,�k��,4.4,��
2024/01/26,19:20,0.504,0.763,0.478,0.960,0.681,0.310,0.553,0.520,�k��,3.8,��
2024/01/26,19:30,0.507,0.764,0.481,0.962,0.681,0.310,0.553,0.520,�k��,3.9,��
2024/01/26,19:40,0.507,0.764,0.480,0.960,0.679,0.311,0.555,0.519,�k��,3.6,��
2024/01/26,19:50,0.505,0.765,0.481,0.960,0.679,0.310,0.554,0.521,�k��,3.4,��
2024/01/26,20:00,0.505,0.763,0.479,0.962,0.679,0.309,0.553,0.520,�k��,4.5,��
2024/01/26,20:10,0.506,0.765,0.480,0.961,0.679,0.309,0.555,0.519,�k��,4.4,��
2024/01/26,20:20,0.507,0.764,0.479,0.962,0.680,0.310,0.554,0.519,���k��,3.1,��
2024/01/26,20:30,0.505,0.764,0.477,0.963,0.680,0.310,0.553,0.520,��,3.0,��
2024/01/26,20:40,0.506,0.764,0.479,0.959,0.680,0.310,0.553,0.520,��,1.9,��
2024/01/26,20:50,0.505,0.765,0.480,0.962,0.680,0.310,0.553,0.520,���쐼,2.5,��
2024/01/26,21:00,0.505,0.765,0.479,0.962,0.681,0.310,0.553,0.520,��쐼,3.0,��
2024/01/26,21:10,0.502,0.763,0.479,0.960,0.681,0.310,0.553,0.520,���쐼,3.0,��
2024/01/26,21:20,0.504,0.764,0.480,0.961,0.680,0.311,0.554,0.519,��,2.0,��
2024/01/26,21:30,0.505,0.765,0.479,0.961,0.680,0.309,0.554,0.519,���k��,1.8,��
2024/01/26,21:40,0.505,0.764,0.480,0.961,0.678,0.310,0.552,0.519,���쐼,2.0,��
2024/01/26,21:50,0.503,0.764,0.480,0.961,0.682,0.310,0.552,0.519,���쐼,2.0,��
2024/01/26,22:00,0.505,0.764,0.480,0.964,0.679,0.310,0.552,0.519,��,2.6,��
2024/01/26,22:10,0.504,0.763,0.480,0.961,0.678,0.310,0.552,0.519,��,2.0,��
2024/01/26,22:20,0.506,0.765,0.479,0.961,0.680,0.309,0.553,0.519,��,2.2,��
2024/01/26,22:30,0.504,0.764,0.479,0.961,0.679,0.311,0.553,0.521,���쐼,1.9,��
2024/01/26,22:40,0.504,0.765,0.480,0.960,0.677,0.310,0.554,0.520,���쐼,1.7,��
2024/01/26,22:50,0.504,0.764,0.479,0.962,0.678,0.309,0.553,0.518,��,1.2,��
2024/01/26,23:00,0.505,0.764,0.480,0.961,0.677,0.310,0.553,0.521,��,2.2,��
2024/01/26,23:10,0.505,0.764,0.480,0.961,0.679,0.311,0.554,0.519,��,1.5,��
2024/01/26,23:20,0.505,0.764,0.479,0.961,0.679,0.309,0.553,0.518,��,1.4,��
2024/01/26,23:30,0.505,0.763,0.480,0.962,0.678,0.310,0.551,0.519,�k��,0.9,��
2024/01/26,23:40,0.505,0.764,0.479,0.962,0.678,0.310,0.552,0.518,�k�k��,1.5,��
2024/01/26,23:50,0.504,0.764,0.478,0.960,0.679,0.310,0.554,0.519,�k��,1.8,��
